Regional Weather Roundup
Issued by NWS

Home | Current Version | Previous Version | Graphics & Text | Print | Product List | Glossary Off
Versions: 1 2 3 4 5 6 7 8 9 10 11 12 13 14 15 16 17 18 19 20 21 22 23 24 25 26 27 28 29 30 31 32 33 34 35 36 37 38 39 40 41 42 43 44 45 46 47 48 49 50

000
ASUS43 KTOP 190359
RWRKS

WEATHER ROUNDUP FOR KANSAS
NATIONAL WEATHER SERVICE GOODLAND KS
1100 PM CDT MON SEP 18 2017

NOTE:  "FAIR" INDICATES FEW OR NO CLOUDS BELOW 12,000 FEET WITH NO
SIGNIFICANT WEATHER AND/OR OBSTRUCTIONS TO VISIBILITY.

KSZ001>006-013>018-027>032-041>047-190500-
NORTHWEST KANSAS

CITY           SKY/WX    TMP DP  RH WIND       PRES   REMARKS
GOODLAND       CLEAR     61  50  67 SE7       29.88F
HAYS           CLEAR     69  59  70 S8        29.87R
HILL CITY      CLEAR     68  60  75 E5        29.86S
RUSSELL        CLEAR     73  62  68 S14       29.86R
$$

KSZ061>065-074>080-084>089-190500-
SOUTHWEST KANSAS

CITY           SKY/WX    TMP DP  RH WIND       PRES   REMARKS
DODGE CITY     CLEAR     71  63  75 S12       29.90S
ELKHART          N/A     63  59  87 S8          N/A
GARDEN CITY    CLEAR     68  59  73 SE12      29.89R
GREAT BEND     CLEAR     71  62  73 S9        29.88R
LIBERAL        CLEAR     70  66  87 SE10      29.90S
$$

KSZ066>073-081>083-090>101-190500-
SOUTHEAST KANSAS

CITY           SKY/WX    TMP DP  RH WIND       PRES   REMARKS
CHANUTE        CLEAR     70  66  87 SE6       29.93S
COFFEYVILLE    CLEAR     70  66  87 S6        29.93S
HUTCHINSON     CLEAR     73  65  75 SE13      29.88S
MEDICINE LODGE   N/A     74  66  76 S9        29.89R
NEWTON         PTCLDY    72  64  76 S12       29.91S
WICHITA INTL   MOCLDY    76  67  73 S14       29.89F
WICHITA JABRA  MOCLDY    75  66  73 SE14      29.90S
WINFIELD       CLEAR     73  68  84 SE9       29.92S
$$

KSZ007>012-019>026-033>040-048>060-102>105-190500-
NORTHEAST KANSAS

CITY           SKY/WX    TMP DP  RH WIND       PRES   REMARKS
CONCORDIA      CLEAR     66  66 100 SE7       29.87R
EMPORIA        MOCLDY    69  65  86 S8        29.92R
LAWRENCE       CLOUDY    68  68 100 E3        29.93R
MANHATTAN      CLEAR     70  67  90 CALM      29.88R
OLATHE IND     CLEAR     67  66  97 S6        29.94S
OLATHE EXE     CLEAR     66  66 100 SE5       29.94R
SALINA         CLEAR     74  64  71 S12       29.86S
TOPEKA BILLARD CLEAR     69  69 100 E5        29.91R
$$




USA.gov is the U.S. government's official web portal to all federal, state and local government web resources and services.